When you browse on this site, cookies collect data to enhance your experience and personalize the content and advertising you see.
Visit our Privacy Policy to learn more. By continuing to use the site, you agree to this use of cookies and data.
  • In Belgium
  • List of Countries
  • For 7 days
  • Water Temperature
  • Satellite Maps
  • Weather Map
  • Weather Widgets
  • user-avatar
    Login

    Hourly Weather Altınekin

    Today, 18 December, Tuesday

    Time Temperature Precipitation Wind Pressure Humidity
    00:00 +7°C° 0 mm 1 mps 674 mmHg 88%
    01:00 +6°C° 0 mm 1 mps 674 mmHg 89%
    02:00 +6°C° 0 mm 1 mps 674 mmHg 89%
    03:00 +6°C° 0 mm 1 mps 674 mmHg 89%
    04:00 +5°C° 0 mm 1 mps 674 mmHg 89%
    05:00 +5°C° 0 mm 1 mps 674 mmHg 89%
    06:00 +6°C° 0 mm 1 mps 674 mmHg 88%
    07:00 +5°C° 0 mm 2 mps 674 mmHg 87%
    08:00 +6°C° 0 mm 2 mps 675 mmHg 84%
    09:00 +7°C° 0 mm 2 mps 675 mmHg 78%
    10:00 +8°C° 0 mm 3 mps 675 mmHg 72%
    11:00 +9°C° 0 mm 3 mps 675 mmHg 66%
    12:00 +10°C° 0 mm 4 mps 674 mmHg 63%
    13:00 +11°C° 0 mm 4 mps 674 mmHg 61%
    14:00 +10°C° 0 mm 4 mps 674 mmHg 58%
    15:00 +10°C° 0 mm 4 mps 674 mmHg 62%
    16:00 +8°C° 0 mm 4 mps 673 mmHg 65%
    17:00 +8°C° 0 mm 4 mps 673 mmHg 68%
    18:00 +8°C° 0.2 mm 5 mps 673 mmHg 70%
    19:00 +8°C° 0.2 mm 6 mps 672 mmHg 72%
    20:00 +7°C° 0.2 mm 6 mps 672 mmHg 74%
    21:00 +7°C° 1.5 mm 6 mps 672 mmHg 78%
    22:00 +7°C° 1.5 mm 6 mps 672 mmHg 81%
    23:00 +5°C° 1.5 mm 6 mps 671 mmHg 85%

    Tomorrow, 19 December, Wednesday

    Time Temperature Precipitation Wind Pressure Humidity
    00:00 +6°C° 1.5 mm 5 mps 672 mmHg 86%
    01:00 +6°C° 1.5 mm 5 mps 672 mmHg 87%
    02:00 +6°C° 1.5 mm 4 mps 672 mmHg 89%
    03:00 +5°C° 0.3 mm 3 mps 672 mmHg 89%
    04:00 +5°C° 0.3 mm 3 mps 672 mmHg 90%
    05:00 +6°C° 0.3 mm 2 mps 672 mmHg 90%
    06:00 +6°C° 0.2 mm 2 mps 672 mmHg 89%
    07:00 +6°C° 0.2 mm 2 mps 672 mmHg 88%
    08:00 +6°C° 0.2 mm 2 mps 672 mmHg 86%
    09:00 +7°C° 0.2 mm 2 mps 672 mmHg 79%
    10:00 +8°C° 0.2 mm 2 mps 672 mmHg 72%
    11:00 +9°C° 0.2 mm 2 mps 672 mmHg 65%
    12:00 +9°C° 0.3 mm 2 mps 672 mmHg 64%
    13:00 +9°C° 0.3 mm 2 mps 672 mmHg 62%
    14:00 +9°C° 0.3 mm 2 mps 672 mmHg 61%
    15:00 +9°C° 0.3 mm 2 mps 672 mmHg 66%
    16:00 +8°C° 0.3 mm 2 mps 672 mmHg 70%
    17:00 +8°C° 0.3 mm 2 mps 672 mmHg 75%
    18:00 +7°C° 0.4 mm 3 mps 673 mmHg 77%
    19:00 +5°C° 0.4 mm 4 mps 673 mmHg 79%
    20:00 +5°C° 0.4 mm 5 mps 673 mmHg 81%
    21:00 +3°C° 0.3 mm 5 mps 673 mmHg 82%
    22:00 +3°C° 0.3 mm 6 mps 674 mmHg 82%
    23:00 +2°C° 0.3 mm 7 mps 674 mmHg 82%

    Day after tomorrow, 20 December, Thursday

    Time Temperature Precipitation Wind Pressure Humidity
    00:00 +2°C° 0.2 mm 7 mps 674 mmHg 82%
    01:00 +1°C° 0.2 mm 6 mps 675 mmHg 82%
    02:00 +1°C° 0.2 mm 6 mps 675 mmHg 82%
    03:00 +1°C° 0.1 mm 6 mps 675 mmHg 82%
    04:00 -1°C° 0.1 mm 6 mps 675 mmHg 83%
    05:00 -1°C° 0.1 mm 6 mps 675 mmHg 84%
    06:00 -1°C° 0 mm 6 mps 676 mmHg 84%
    07:00 0°C° 0 mm 5 mps 676 mmHg 84%
    08:00 0°C° 0 mm 5 mps 677 mmHg 85%
    09:00 0°C° 0 mm 5 mps 677 mmHg 82%
    10:00 +1°C° 0 mm 5 mps 677 mmHg 80%
    11:00 +2°C° 0 mm 5 mps 678 mmHg 78%
    12:00 +2°C° 0 mm 5 mps 678 mmHg 75%
    13:00 +4°C° 0 mm 4 mps 677 mmHg 73%
    14:00 +5°C° 0 mm 4 mps 677 mmHg 71%
    15:00 +4°C° 0 mm 4 mps 678 mmHg 73%
    16:00 +4°C° 0 mm 3 mps 678 mmHg 76%
    17:00 +3°C° 0 mm 3 mps 678 mmHg 78%
    18:00 +3°C° 0 mm 3 mps 678 mmHg 80%
    19:00 +3°C° 0 mm 3 mps 679 mmHg 81%
    20:00 +2°C° 0 mm 3 mps 679 mmHg 82%
    21:00 +3°C° 0 mm 2 mps 679 mmHg 82%
    22:00 +3°C° 0 mm 2 mps 680 mmHg 82%
    23:00 +3°C° 0 mm 2 mps 680 mmHg 83%

    21 December, Friday

    Time Temperature Precipitation Wind Pressure Humidity
    00:00 +3°C° 0 mm 2 mps 680 mmHg 84%
    01:00 +3°C° 0 mm 2 mps 680 mmHg 85%
    02:00 +2°C° 0 mm 2 mps 680 mmHg 87%
    03:00 +3°C° 0 mm 1 mps 680 mmHg 88%
    04:00 +3°C° 0 mm 1 mps 680 mmHg 89%
    05:00 +2°C° 0 mm 1 mps 680 mmHg 90%
    06:00 +3°C° 0 mm 1 mps 680 mmHg 89%
    07:00 +3°C° 0 mm 1 mps 680 mmHg 88%
    08:00 +2°C° 0 mm 0 mps 681 mmHg 87%
    09:00 +5°C° 0 mm 1 mps 681 mmHg 81%
    10:00 +6°C° 0 mm 1 mps 680 mmHg 76%
    11:00 +7°C° 0 mm 1 mps 680 mmHg 70%
    12:00 +8°C° 0 mm 1 mps 680 mmHg 68%
    13:00 +8°C° 0 mm 1 mps 679 mmHg 65%
    14:00 +9°C° 0 mm 1 mps 679 mmHg 62%
    15:00 +8°C° 0 mm 1 mps 679 mmHg 66%
    16:00 +7°C° 0 mm 1 mps 679 mmHg 71%
    17:00 +6°C° 0 mm 1 mps 678 mmHg 76%
    18:00 +6°C° 0 mm 1 mps 678 mmHg 77%
    19:00 +5°C° 0 mm 1 mps 678 mmHg 79%
    20:00 +5°C° 0 mm 1 mps 679 mmHg 81%
    21:00 +5°C° 0 mm 1 mps 678 mmHg 81%
    22:00 +5°C° 0 mm 1 mps 678 mmHg 81%
    23:00 +4°C° 0 mm 1 mps 678 mmHg 81%

    22 December, Saturday

    Time Temperature Precipitation Wind Pressure Humidity
    00:00 +4°C° 0 mm 1 mps 678 mmHg 80%
    01:00 +4°C° 0 mm 1 mps 678 mmHg 78%
    02:00 +4°C° 0 mm 1 mps 678 mmHg 77%
    03:00 +3°C° 0 mm 2 mps 678 mmHg 78%
    04:00 +3°C° 0 mm 2 mps 678 mmHg 79%
    05:00 +2°C° 0 mm 2 mps 678 mmHg 79%
    06:00 +2°C° 0 mm 2 mps 679 mmHg 80%
    07:00 +2°C° 0 mm 2 mps 679 mmHg 80%
    08:00 +2°C° 0 mm 2 mps 680 mmHg 80%
    09:00 +4°C° 0 mm 2 mps 680 mmHg 73%
    10:00 +5°C° 0 mm 2 mps 680 mmHg 66%
    11:00 +6°C° 0 mm 2 mps 680 mmHg 59%
    12:00 +7°C° 0 mm 2 mps 680 mmHg 55%
    13:00 +7°C° 0 mm 2 mps 680 mmHg 51%
    14:00 +8°C° 0 mm 2 mps 679 mmHg 47%
    15:00 +8°C° 0 mm 1 mps 679 mmHg 51%
    16:00 +7°C° 0 mm 1 mps 679 mmHg 56%
    17:00 +5°C° 0 mm 0 mps 679 mmHg 60%
    18:00 +4°C° 0 mm 0 mps 679 mmHg 61%
    19:00 +5°C° 0 mm 1 mps 679 mmHg 62%
    20:00 +4°C° 0 mm 1 mps 679 mmHg 63%
    21:00 +4°C° 0 mm 1 mps 679 mmHg 63%
    22:00 +4°C° 0 mm 1 mps 679 mmHg 64%
    23:00 +3°C° 0 mm 2 mps 679 mmHg 64%

    23 December, Sunday

    Time Temperature Precipitation Wind Pressure Humidity
    00:00 +3°C° 0 mm 2 mps 679 mmHg 65%
    01:00 +3°C° 0 mm 2 mps 679 mmHg 66%
    02:00 +3°C° 0 mm 2 mps 679 mmHg 67%
    03:00 +3°C° 0 mm 2 mps 678 mmHg 67%
    04:00 +3°C° 0 mm 2 mps 678 mmHg 67%
    05:00 +2°C° 0 mm 2 mps 678 mmHg 67%
    06:00 +3°C° 0 mm 2 mps 678 mmHg 65%
    07:00 +3°C° 0 mm 2 mps 678 mmHg 63%
    08:00 +3°C° 0 mm 2 mps 678 mmHg 61%
    09:00 +5°C° 0 mm 2 mps 678 mmHg 53%
    10:00 +7°C° 0 mm 2 mps 679 mmHg 46%
    11:00 +8°C° 0 mm 2 mps 679 mmHg 38%
    12:00 +9°C° 0 mm 2 mps 678 mmHg 35%
    13:00 +10°C° 0 mm 2 mps 678 mmHg 32%
    14:00 +12°C° 0 mm 2 mps 678 mmHg 29%
    15:00 +9°C° 0 mm 2 mps 677 mmHg 34%
    16:00 +9°C° 0 mm 1 mps 677 mmHg 38%
    17:00 +7°C° 0 mm 1 mps 677 mmHg 43%
    18:00 +7°C° 0 mm 1 mps 677 mmHg 43%
    19:00 +7°C° 0 mm 1 mps 678 mmHg 44%
    20:00 +6°C° 0 mm 1 mps 678 mmHg 44%
    21:00 +5°C° 0 mm 2 mps 678 mmHg 45%
    22:00 +5°C° 0 mm 2 mps 678 mmHg 46%
    23:00 +4°C° 0 mm 2 mps 678 mmHg 47%
    Show more